Other Surface Observations
Issued by NWS Charleston, SC

Home | Current Version | Previous Version | Text Only | Print | Product List | Glossary On
Versions: 1 2 3 4 5 6 7 8 9 10 11 12 13 14 15 16 17 18 19 20 21 22 23 24 25 26 27 28 29 30 31 32 33 34 35 36 37 38 39 40 41 42 43 44 45 46 47 48 49 50
000
SXUS52 KCHS 300127
OSOCHS

MARINE OBSERVATIONS
NATIONAL WEATHER SERVICE CHARLESTON SC
900 PM EDT SAT AUG 29 2015

...DOWNTOWN CHARLESTON AND HARBOR...

CITY           SKY/WX    TMP DP  RH WIND       PRES   REMARKS
WATERFRONT PRK   N/A     81  75  82 E9        30.08R

...LAKE MOULTRIE...

CITY           SKY/WX    TMP DP  RH WIND       PRES   REMARKS
PINOPOLIS        N/A     82  64  54 VRB2      30.03R

...LAKE AND SUPPLEMENTAL COASTAL OBSERVATIONS...

STATION/POSITION TIME  TEMP    WIND        PRES    WAVE   SWELL
                       AIR SEA DIR/SP/G            HT/PER HT/PER/DIR
                 (UTC) (F)     (DEG/KT/KT) (MB)    (FT/S) (FT/S/D)
FORT PULASKI     NOT AVBL
SAPELO ISLAND    0100   80      60/  7     1019.0S
UPR LAKE MARION  NOT AVBL
WINYAH BAY       0045   80      90/  6     1019.0S
LAKE MURRAY      0100   81     100/  6/  7 1020.0R
ACE BASIN NERRS  NOT AVBL


...C-MAN AND BUOY OBSERVATIONS...

STATION/POSITION TIME  TEMP    WIND        PRES    WAVE   SWELL
                       AIR SEA DIR/SP/G            HT/PER HT/PER/DIR
                 (UTC) (F)     (DEG/KT/KT) (MB)    (FT/S) (FT/S/D)
BUOY 41004       0050   81 85   60/ 12/ 16 1018.6R   4/11   3/11
BUOY 41008       0050   81 85   70/ 10/ 14 1018.7R   4/11   3/110/11
FOLLY BEACH CMAN 0100   80      80/ 10/ 12 1019.7S
CAPERS NS BUOY   0008   81      90/ 10/ 14 1019.5R
FRIPP NS BUOY    0000   81      90/ 14/ 16 1018.8R
5E ST. MARYS GA  0021      86                N/A     4/11   2/100/11


STATION/POSITION TIME  TEMP    WIND        PRES    WAVE   SWELL
                       AIR SEA DIR/SP/G            HT/PER HT/PER/DIR
                 (UTC) (F)     (DEG/KT/KT) (MB)    (FT/S) (FT/S/D)
FRYING PAN BUOY  0050   81 82   60/ 12/ 16 1019.5R   4/ 6   3/130/11
BUOY 41025       0050   79 82   30/ 17/ 19 1018.5R   5/11   3/140/11
CAPE LOOKOUT NC  0100   78      30/ 11/ 14 1019.5R
BUOY 41002       0050   83 84  210/  2/  2 1019.7S   5/11   5/110/11
BUOY 41010       0020   83 85   80/ 14/ 16 1017.7R
ST AUGUSTINE FL  0100   83 86  110/ 11/ 12 1018.5S

$$



USA.gov is the U.S. government's official web portal to all federal, state and local government web resources and services.